Current weather by "City, St" or "zip code"  
 

Current Conditions: Cowley WY, WY

Fair


54.0 F

Last Updated on Oct 21 2021, 11:55 am MDT
Humidity: 54%
Wind Speed: E 4.6 mph
Barometer 30.20 in
Dewpoint: 37.4 F
Visibility: 10.00 mi
Precip: --
Heat Index: NA
Wind Chill: 53 F
Current conditions at:

Cowley WY, WY (KU68)

Lat: 44.91167 Lon: 108.4455

Local Radar Image active severe weather and emergency alerts image image weather storm and storm spotter reports image weather observation monitoring service image
Local
Radar
Active
Alerts
Storm Reports Obs
Monitoring

Sign-up For Email & Text Message Weather Alert Notification Services



Advertise Here

Observation History for Cowley WY, WY


Time Wind
(mph)
Vis
(mi)
Weather Precip (in) Temperature (F) Relative
Humidity
Wind
Chill
(F)
Heat
Index
(F)
Pressure
Air Dwpt altimeter
(in)
sea level
(mb)
Rmks
11:55 am MDT E 4.6 10.00 Fair -- 54.0 37.4 54% 53 NA 30.20 M
10:55 am MDT E 5.8 10.00 Fair -- 50.0 37.4 62% 48 NA 30.22 M
9:55 am MDT E 5.8 10.00 Partly Cloudy -- 46.0 37.4 71% 43 NA 30.22 M
9:35 am MDT N 0.0 10.00 Mostly Cloudy -- 45.0 37.4 76% NA NA 30.23 M
8:55 am MDT N 0.0 10.00 Overcast -- 43.0 35.6 76% NA NA 30.24 M
7:55 am MDT E 5.8 10.00 Overcast -- 45.0 35.6 71% 42 NA 30.20 M
6:55 am MDT NE 5.8 10.00 Overcast -- 43.0 35.6 76% 39 NA 30.20 M
5:55 am MDT NE 5.8 10.00 Fair -- 39.0 35.6 87% 35 NA 30.20 M
5:35 am MDT E 4.6 10.00 Fair -- 36.0 35.6 100% 32 NA 30.20 M
4:55 am MDT E 3.5 10.00 Fair -- 37.0 33.8 87% NA NA 30.19 M
4:35 am MDT N 0.0 10.00 Fair -- 37.0 35.6 93% NA NA 30.20 M
3:55 am MDT NE 5.8 10.00 Fair -- 37.0 35.6 93% 32 NA 30.19 M
3:35 am MDT NE 4.6 10.00 Fair -- 36.0 35.6 100% 32 NA 30.19 M
2:55 am MDT N 0.0 10.00 Fair -- 36.0 35.6 100% NA NA 30.18 M
1:55 am MDT N 0.0 10.00 Fair -- 37.0 32.0 81% NA NA 30.17 M
12:55 am MDT N 0.0 10.00 Fair -- 41.0 33.8 76% NA NA 30.17 M
12:35 am MDT N 0.0 10.00 Fair -- 39.0 33.8 81% NA NA 30.16 M
11:55 pm MDT N 0.0 10.00 Fair -- 39.0 33.8 81% NA NA 30.17 M
10:55 pm MDT N 0.0 10.00 Fair -- 41.0 33.8 76% NA NA 30.16 M
10:35 pm MDT NE 3.5 10.00 Fair -- 43.0 35.6 76% NA NA 30.16 M
9:55 pm MDT NE 10.4 10.00 Fair -- 43.0 35.6 76% 37 NA 30.14 M
8:55 pm MDT NE 3.5 10.00 Partly Cloudy -- 46.0 35.6 66% NA NA 30.15 M
8:35 pm MDT N 0.0 10.00 Partly Cloudy -- 46.0 35.6 66% NA NA 30.15 M
7:55 pm MDT NW 4.6 10.00 Fair -- 45.0 35.6 71% 43 NA 30.13 M

Regional Weather Observation


Powell Municipal Airport, WY (KPOY)

Fair
52.0 F

Laurel Municipal Airport, MT (K6S8)

NULL
63.0 F

Billings, Billings Logan International Airport, MT (KBIL)

Mostly Cloudy
59.0 F

South Big Horn County Airport, WY (KGEY)

Fair
55.0 F

Cody, WY (KCOD)

Fair
61.0 F

Big Horn County Airport, MT (K00U)

Fair
55.0 F

Advertise Here


Advertise Here